QPF
0.00 0.00 0.00 0.00 0.03 0.08 0.07 0.01 0.00 0.00 0.00 0.00 0.00 0.00 0.00 0.02 0.05 0.14 0.04 0.01 0.00 0.00 0.00 0.00 0.00 0.00 0.01 0.02 0.02 0.02 0.02 0.02 0.02 0.01 0.01 0.01 0.01 0.01 0.01 0.01 0.01 0.01 0.01 0.01 0.01 0.01 0.01 0.01 0.01
0.00 0.00 0.00 0.00 0.04 0.06 0.03 0.01 0.00 0.00 0.00 0.00 0.00 0.00 0.01 0.01 0.00 0.02 0.01 0.00 0.00 0.00 0.00 0.00 0.00 0.01 0.01 0.02 0.02 0.02 0.02 0.02 0.02 0.01 0.01 0.01 0.01 0.01 0.01 0.01 0.01 0.01 0.01 0.01 0.01 0.00 0.01 0.01 0.01
0.00 0.00 0.00 0.00 0.02 0.02 0.01 0.00 0.00 0.00 0.00 0.00 0.00 0.01 0.03 0.02 0.01 0.01 0.01 0.00 0.00 0.00 0.00 0.00 0.00 0.01 0.01 0.02 0.02 0.02 0.02 0.01 0.01 0.01 0.01 0.01 0.01 0.01 0.01 0.01 0.02 0.01 0.01 0.01 0.01 0.01 0.01 0.01 0.01
0.00 0.00 0.00 0.01 0.02 0.00 0.00 0.00 0.00 0.00 0.00 0.00 0.00 0.02 0.01 0.01 0.01 0.00 0.00 0.00 0.00 0.00 0.00 0.00 0.00 0.01 0.01 0.02 0.02 0.02 0.02 0.02 0.01 0.01 0.01 0.01 0.01 0.01 0.01 0.01 0.01 0.01 0.01 0.01 0.01 0.01 0.01 0.01 0.01
0.00 0.00 0.00 0.02 0.01 0.00 0.00 0.00 0.00 0.00 0.01 0.00 0.01 0.05 0.06 0.02 0.00 0.00 0.00 0.01 0.00 0.00 0.00 0.00 0.00 0.01 0.01 0.01 0.02 0.02 0.02 0.02 0.01 0.01 0.01 0.01 0.01 0.02 0.02 0.01 0.01 0.01 0.01 0.01 0.01 0.00 0.01 0.01 0.01
0.00 0.00 0.01 0.01 0.00 0.00 0.00 0.00 0.00 0.01 0.01 0.01 0.01 0.04 0.06 0.03 0.00 0.00 0.00 0.00 0.00 0.00 0.00 0.00 0.00 0.01 0.01 0.02 0.03 0.03 0.02 0.02 0.01 0.01 0.01 0.01 0.01 0.01 0.01 0.01 0.00 0.00 0.00 0.00 0.00 0.00 0.00 0.00 0.01
0.00 0.00 0.01 0.01 0.00 0.00 0.00 0.00 0.00 0.00 0.01 0.01 0.00 0.03 0.05 0.03 0.00 0.00 0.00 0.00 0.00 0.00 0.00 0.00 0.00 0.01 0.01 0.03 0.03 0.03 0.02 0.02 0.01 0.01 0.01 0.01 0.01 0.01 0.01 0.01 0.01 0.01 0.00 0.00 0.00 0.00 0.00 0.00 0.01
0.00 0.00 0.00 0.00 0.00 0.00 0.00 0.00 0.00 0.00 0.02 0.02 0.01 0.05 0.14 0.07 0.01 0.00 0.01 0.00 0.01 0.01 0.00 0.01 0.01 0.01 0.01 0.02 0.02 0.03 0.02 0.02 0.02 0.01 0.01 0.01 0.00 0.01 0.01 0.01 0.01 0.00 0.01 0.00 0.00 0.00 0.00 0.00 0.00
0.00 0.00 0.00 0.00 0.00 0.00 0.00 0.00 0.00 0.00 0.01 0.01 0.01 0.04 0.12 0.05 0.02 0.02 0.04 0.03 0.03 0.06 0.06 0.03 0.04 0.04 0.03 0.02 0.02 0.03 0.02 0.02 0.02 0.02 0.01 0.02 0.04 0.05 0.04 0.03 0.01 0.01 0.01 0.00 0.01 0.00 0.00 0.00 0.00
0.00 0.00 0.00 0.00 0.00 0.00 0.00 0.00 0.00 0.01 0.02 0.04 0.06 0.07 0.15 0.05 0.03 0.03 0.06 0.05 0.06 0.09 0.11 0.05 0.08 0.05 0.04 0.04 0.03 0.06 0.08 0.06 0.06 0.07 0.04 0.08 0.12 0.10 0.08 0.05 0.03 0.01 0.01 0.00 0.01 0.01 0.01 0.01 0.03
0.00 0.00 0.00 0.00 0.00 0.00 0.00 0.00 0.00 0.01 0.02 0.04 0.09 0.13 0.13 0.07 0.06 0.06 0.07 0.07 0.09 0.10 0.12 0.08 0.10 0.09 0.08 0.10 0.09 0.10 0.13 0.14 0.11 0.11 0.08 0.12 0.11 0.07 0.07 0.08 0.05 0.04 0.03 0.04 0.04 0.04 0.05 0.04 0.05
0.00 0.00 0.00 0.00 0.00 0.00 0.00 0.00 0.00 0.01 0.01 0.03 0.06 0.12 0.11 0.08 0.09 0.11 0.09 0.11 0.14 0.18 0.16 0.11 0.09 0.08 0.08 0.09 0.11 0.11 0.10 0.11 0.11 0.11 0.08 0.08 0.10 0.11 0.10 0.12 0.11 0.09 0.09 0.08 0.06 0.06 0.04 0.04 0.05
0.00 0.00 0.00 0.00 0.00 0.00 0.00 0.00 0.00 0.00 0.01 0.02 0.04 0.09 0.11 0.12 0.12 0.14 0.14 0.19 0.16 0.23 0.27 0.17 0.10 0.11 0.10 0.10 0.11 0.09 0.09 0.12 0.13 0.10 0.09 0.07 0.09 0.10 0.11 0.12 0.10 0.08 0.07 0.06 0.05 0.05 0.04 0.04 0.04
0.00 0.00 0.00 0.01 0.00 0.00 0.00 0.00 0.00 0.01 0.01 0.01 0.03 0.06 0.15 0.18 0.15 0.16 0.18 0.23 0.20 0.22 0.24 0.17 0.13 0.11 0.12 0.09 0.09 0.09 0.08 0.14 0.16 0.10 0.09 0.07 0.11 0.13 0.12 0.11 0.09 0.06 0.04 0.04 0.04 0.04 0.04 0.04 0.03
0.00 0.00 0.01 0.01 0.00 0.00 0.00 0.01 0.02 0.02 0.03 0.04 0.05 0.07 0.14 0.18 0.20 0.20 0.22 0.26 0.21 0.20 0.22 0.21 0.17 0.12 0.12 0.13 0.08 0.07 0.09 0.10 0.11 0.12 0.09 0.07 0.10 0.11 0.09 0.08 0.06 0.04 0.04 0.05 0.04 0.05 0.07 0.05 0.05
0.00 0.01 0.02 0.01 0.00 0.00 0.00 0.02 0.02 0.02 0.06 0.09 0.07 0.09 0.10 0.12 0.19 0.20 0.23 0.27 0.21 0.21 0.24 0.29 0.30 0.21 0.14 0.13 0.12 0.10 0.11 0.11 0.10 0.09 0.08 0.06 0.09 0.08 0.06 0.05 0.04 0.04 0.03 0.04 0.05 0.06 0.07 0.07 0.07
0.01 0.01 0.02 0.01 0.01 0.00 0.00 0.02 0.01 0.02 0.05 0.08 0.08 0.09 0.10 0.10 0.13 0.17 0.21 0.26 0.23 0.24 0.25 0.25 0.36 0.33 0.20 0.13 0.11 0.12 0.11 0.10 0.09 0.08 0.07 0.07 0.06 0.04 0.05 0.05 0.06 0.05 0.05 0.05 0.04 0.08 0.07 0.07 0.06
0.00 0.00 0.01 0.01 0.00 0.00 0.00 0.01 0.01 0.01 0.02 0.04 0.05 0.07 0.09 0.09 0.15 0.22 0.24 0.21 0.21 0.27 0.29 0.26 0.28 0.30 0.24 0.18 0.15 0.15 0.12 0.09 0.09 0.09 0.08 0.07 0.05 0.03 0.04 0.05 0.05 0.06 0.05 0.05 0.05 0.07 0.06 0.06 0.05
0.00 0.00 0.01 0.01 0.00 0.00 0.00 0.01 0.01 0.01 0.01 0.02 0.03 0.05 0.07 0.08 0.14 0.23 0.27 0.23 0.18 0.22 0.24 0.25 0.26 0.23 0.20 0.18 0.16 0.15 0.14 0.13 0.11 0.09 0.07 0.04 0.04 0.03 0.04 0.05 0.05 0.04 0.05 0.05 0.05 0.05 0.05 0.05 0.04
0.00 0.00 0.01 0.01 0.00 0.00 0.00 0.02 0.02 0.02 0.01 0.02 0.03 0.04 0.07 0.10 0.17 0.25 0.23 0.21 0.18 0.16 0.18 0.18 0.20 0.17 0.15 0.15 0.16 0.15 0.16 0.12 0.10 0.09 0.08 0.04 0.03 0.03 0.03 0.04 0.03 0.03 0.03 0.04 0.04 0.03 0.03 0.03 0.02
0.00 0.00 0.01 0.00 0.00 0.00 0.01 0.04 0.03 0.03 0.01 0.01 0.01 0.03 0.06 0.08 0.12 0.18 0.19 0.17 0.17 0.15 0.14 0.13 0.16 0.16 0.14 0.14 0.13 0.14 0.14 0.13 0.13 0.11 0.07 0.04 0.03 0.04 0.04 0.03 0.02 0.03 0.02 0.03 0.03 0.02 0.03 0.02 0.01
0.00 0.00 0.00 0.00 0.00 0.01 0.01 0.04 0.03 0.01 0.01 0.02 0.02 0.02 0.04 0.04 0.05 0.08 0.12 0.15 0.15 0.14 0.15 0.16 0.16 0.15 0.13 0.12 0.12 0.11 0.10 0.11 0.10 0.07 0.06 0.05 0.03 0.03 0.03 0.02 0.02 0.02 0.01 0.02 0.01 0.01 0.01 0.01 0.01
0.00 0.00 0.00 0.00 0.01 0.04 0.03 0.03 0.01 0.00 0.01 0.02 0.01 0.01 0.01 0.01 0.03 0.05 0.08 0.14 0.13 0.12 0.14 0.14 0.15 0.13 0.11 0.12 0.11 0.11 0.09 0.09 0.07 0.07 0.06 0.05 0.03 0.03 0.01 0.01 0.01 0.01 0.01 0.01 0.01 0.00 0.00 0.00 0.00
0.00 0.00 0.00 0.02 0.06 0.13 0.07 0.02 0.02 0.01 0.02 0.00 0.00 0.00 0.00 0.00 0.01 0.03 0.04 0.08 0.09 0.10 0.12 0.11 0.12 0.11 0.12 0.11 0.10 0.10 0.09 0.08 0.07 0.07 0.06 0.04 0.02 0.02 0.01 0.01 0.01 0.01 0.01 0.01 0.00 0.00 0.00 0.00 0.00
0.00 0.00 0.03 0.07 0.16 0.18 0.05 0.01 0.01 0.00 0.01 0.00 0.00 0.00 0.00 0.00 0.01 0.01 0.02 0.04 0.05 0.05 0.07 0.07 0.07 0.08 0.09 0.09 0.08 0.08 0.08 0.07 0.07 0.06 0.06 0.04 0.01 0.01 0.01 0.01 0.01 0.00 0.00 0.00 0.00 0.00 0.00 0.00 0.00
0.00 0.00 0.03 0.07 0.09 0.08 0.06 0.03 0.02 0.00 0.00 0.00 0.00 0.00 0.00 0.00 0.01 0.02 0.03 0.03 0.03 0.02 0.04 0.05 0.06 0.06 0.06 0.06 0.05 0.07 0.06 0.05 0.04 0.04 0.04 0.02 0.01 0.00 0.01 0.01 0.00 0.00 0.00 0.00 0.00 0.00 0.00 0.00 0.00
0.00 0.00 0.00 0.01 0.02 0.04 0.07 0.06 0.04 0.01 0.01 0.00 0.00 0.00 0.00 0.00 0.00 0.00 0.01 0.01 0.02 0.01 0.02 0.03 0.04 0.04 0.03 0.04 0.03 0.04 0.04 0.04 0.04 0.03 0.03 0.01 0.01 0.01 0.01 0.01 0.00 0.00 0.00 0.00 0.00 0.00 0.00 0.00 0.00
0.00 0.00 0.00 0.00 0.02 0.04 0.06 0.08 0.09 0.05 0.02 0.00 0.00 0.00 0.00 0.00 0.00 0.00 0.00 0.01 0.01 0.01 0.01 0.02 0.03 0.04 0.03 0.04 0.03 0.02 0.03 0.05 0.05 0.03 0.02 0.01 0.01 0.01 0.01 0.01 0.00 0.00 0.00 0.00 0.00 0.00 0.00 0.00 0.00
0.00 0.00 0.00 0.00 0.00 0.03 0.07 0.11 0.11 0.05 0.01 0.00 0.00 0.00 0.00 0.00 0.00 0.00 0.00 0.00 0.00 0.00 0.01 0.01 0.02 0.04 0.03 0.03 0.03 0.04 0.04 0.04 0.04 0.02 0.01 0.01 0.01 0.01 0.00 0.00 0.00 0.00 0.00 0.00 0.00 0.00 0.00 0.00 0.00
0.01 0.01 0.00 0.01 0.00 0.01 0.02 0.05 0.05 0.03 0.02 0.01 0.00 0.00 0.00 0.00 0.00 0.00 0.00 0.00 0.00 0.00 0.01 0.01 0.02 0.02 0.02 0.02 0.03 0.04 0.04 0.03 0.03 0.02 0.01 0.01 0.01 0.00 0.00 0.00 0.00 0.00 0.00 0.00 0.00 0.00 0.00 0.00 0.00
MSLP
1007.75 1008.30 1008.90 1009.41 1009.71 1009.72 1009.44 1008.92 1008.30 1007.69 1007.25 1007.03 1007.08 1007.33 1007.70 1008.08 1008.39 1008.57 1008.65 1008.69 1008.79 1009.04 1009.50 1010.18 1011.03 1011.96 1012.84 1013.57 1014.09 1014.39 1014.50 1014.51 1014.51 1014.56 1014.72 1014.96 1015.26 1015.56 1015.81 1015.98 1016.06 1016.08 1016.08 1016.10 1016.17 1016.29 1016.44 1016.59 1016.69
1007.93 1008.54 1009.13 1009.56 1009.73 1009.58 1009.12 1008.44 1007.67 1006.95 1006.41 1006.15 1006.16 1006.41 1006.80 1007.24 1007.62 1007.92 1008.15 1008.35 1008.61 1009.01 1009.59 1010.36 1011.26 1012.19 1013.05 1013.76 1014.27 1014.57 1014.71 1014.77 1014.82 1014.92 1015.10 1015.35 1015.64 1015.90 1016.11 1016.23 1016.28 1016.29 1016.30 1016.35 1016.44 1016.58 1016.74 1016.87 1016.94
1008.15 1008.78 1009.32 1009.66 1009.69 1009.39 1008.78 1007.97 1007.08 1006.28 1005.69 1005.39 1005.38 1005.63 1006.04 1006.52 1006.99 1007.40 1007.76 1008.12 1008.54 1009.08 1009.77 1010.60 1011.52 1012.43 1013.26 1013.93 1014.41 1014.72 1014.90 1015.01 1015.12 1015.27 1015.49 1015.74 1016.00 1016.22 1016.38 1016.46 1016.49 1016.51 1016.54 1016.62 1016.75 1016.91 1017.07 1017.18 1017.21
1008.35 1008.96 1009.43 1009.66 1009.56 1009.13 1008.42 1007.53 1006.59 1005.77 1005.16 1004.85 1004.84 1005.08 1005.50 1006.01 1006.54 1007.04 1007.53 1008.03 1008.59 1009.25 1010.03 1010.90 1011.81 1012.68 1013.46 1014.08 1014.53 1014.84 1015.04 1015.20 1015.37 1015.58 1015.82 1016.08 1016.32 1016.50 1016.62 1016.67 1016.70 1016.73 1016.80 1016.92 1017.09 1017.28 1017.43 1017.51 1017.48
1008.45 1009.00 1009.37 1009.49 1009.28 1008.77 1008.01 1007.11 1006.20 1005.42 1004.86 1004.58 1004.57 1004.81 1005.23 1005.74 1006.29 1006.85 1007.43 1008.04 1008.71 1009.48 1010.32 1011.22 1012.11 1012.94 1013.65 1014.22 1014.63 1014.92 1015.14 1015.34 1015.56 1015.81 1016.07 1016.33 1016.55 1016.71 1016.80 1016.85 1016.88 1016.94 1017.05 1017.22 1017.43 1017.64 1017.78 1017.81 1017.73
1008.41 1008.86 1009.11 1009.11 1008.83 1008.29 1007.55 1006.71 1005.90 1005.22 1004.75 1004.54 1004.57 1004.80 1005.20 1005.68 1006.23 1006.81 1007.43 1008.12 1008.88 1009.71 1010.61 1011.52 1012.40 1013.18 1013.83 1014.33 1014.69 1014.96 1015.19 1015.41 1015.66 1015.93 1016.22 1016.48 1016.69 1016.83 1016.92 1016.96 1017.02 1017.11 1017.27 1017.49 1017.73 1017.94 1018.06 1018.06 1017.92
1008.23 1008.53 1008.65 1008.54 1008.20 1007.67 1007.01 1006.31 1005.65 1005.14 1004.81 1004.69 1004.77 1005.00 1005.36 1005.80 1006.30 1006.87 1007.50 1008.22 1009.03 1009.91 1010.84 1011.76 1012.62 1013.35 1013.94 1014.39 1014.71 1014.96 1015.17 1015.41 1015.67 1015.96 1016.26 1016.53 1016.74 1016.88 1016.96 1017.02 1017.10 1017.23 1017.43 1017.68 1017.93 1018.15 1018.25 1018.21 1018.02
1007.93 1008.07 1008.04 1007.84 1007.47 1006.98 1006.44 1005.91 1005.46 1005.14 1004.98 1004.97 1005.11 1005.34 1005.66 1006.03 1006.47 1006.98 1007.59 1008.30 1009.12 1010.02 1010.96 1011.89 1012.72 1013.43 1013.98 1014.38 1014.67 1014.90 1015.10 1015.34 1015.61 1015.92 1016.23 1016.50 1016.71 1016.86 1016.95 1017.03 1017.13 1017.29 1017.51 1017.77 1018.03 1018.24 1018.32 1018.26 1018.04
1007.57 1007.54 1007.38 1007.10 1006.72 1006.30 1005.90 1005.56 1005.32 1005.21 1005.22 1005.34 1005.53 1005.77 1006.05 1006.35 1006.70 1007.13 1007.68 1008.35 1009.14 1010.03 1010.96 1011.87 1012.69 1013.37 1013.90 1014.28 1014.55 1014.77 1014.98 1015.22 1015.50 1015.82 1016.14 1016.42 1016.65 1016.81 1016.92 1017.01 1017.13 1017.29 1017.52 1017.78 1018.04 1018.23 1018.30 1018.22 1018.00
1007.22 1007.06 1006.78 1006.44 1006.07 1005.73 1005.46 1005.30 1005.27 1005.35 1005.53 1005.76 1006.01 1006.26 1006.49 1006.72 1006.98 1007.32 1007.77 1008.36 1009.10 1009.94 1010.83 1011.71 1012.51 1013.18 1013.69 1014.07 1014.35 1014.57 1014.80 1015.05 1015.35 1015.68 1016.02 1016.32 1016.57 1016.75 1016.88 1016.99 1017.11 1017.28 1017.49 1017.74 1017.97 1018.15 1018.21 1018.13 1017.92
1006.96 1006.69 1006.33 1005.96 1005.61 1005.34 1005.20 1005.19 1005.33 1005.57 1005.88 1006.21 1006.52 1006.77 1006.96 1007.13 1007.30 1007.54 1007.89 1008.38 1009.02 1009.78 1010.61 1011.44 1012.21 1012.86 1013.38 1013.77 1014.07 1014.33 1014.57 1014.85 1015.18 1015.53 1015.89 1016.22 1016.49 1016.70 1016.86 1016.98 1017.11 1017.27 1017.46 1017.68 1017.89 1018.04 1018.10 1018.04 1017.87
1006.82 1006.49 1006.10 1005.71 1005.39 1005.19 1005.14 1005.25 1005.50 1005.85 1006.26 1006.66 1007.00 1007.27 1007.45 1007.57 1007.67 1007.82 1008.06 1008.44 1008.96 1009.61 1010.35 1011.11 1011.83 1012.47 1013.00 1013.42 1013.76 1014.05 1014.34 1014.65 1015.00 1015.38 1015.76 1016.12 1016.42 1016.67 1016.86 1017.00 1017.14 1017.29 1017.46 1017.65 1017.83 1017.97 1018.03 1018.00 1017.86
1006.81 1006.46 1006.07 1005.70 1005.42 1005.26 1005.27 1005.44 1005.75 1006.16 1006.61 1007.06 1007.43 1007.72 1007.90 1008.00 1008.06 1008.14 1008.29 1008.55 1008.95 1009.48 1010.11 1010.79 1011.46 1012.08 1012.62 1013.08 1013.46 1013.79 1014.12 1014.46 1014.84 1015.23 1015.64 1016.02 1016.36 1016.65 1016.87 1017.05 1017.19 1017.34 1017.49 1017.65 1017.81 1017.94 1018.01 1018.01 1017.92
1006.91 1006.58 1006.21 1005.87 1005.62 1005.50 1005.53 1005.70 1006.02 1006.43 1006.88 1007.34 1007.74 1008.05 1008.27 1008.39 1008.45 1008.50 1008.59 1008.76 1009.04 1009.45 1009.97 1010.56 1011.17 1011.77 1012.33 1012.81 1013.24 1013.62 1013.98 1014.34 1014.72 1015.12 1015.53 1015.93 1016.29 1016.61 1016.88 1017.09 1017.26 1017.42 1017.56 1017.71 1017.85 1017.97 1018.05 1018.08 1018.04
1007.06 1006.76 1006.44 1006.14 1005.92 1005.81 1005.82 1005.96 1006.23 1006.59 1007.01 1007.45 1007.87 1008.23 1008.50 1008.68 1008.79 1008.86 1008.92 1009.04 1009.23 1009.54 1009.95 1010.46 1011.02 1011.61 1012.17 1012.69 1013.16 1013.57 1013.95 1014.31 1014.67 1015.05 1015.45 1015.84 1016.22 1016.56 1016.87 1017.12 1017.33 1017.50 1017.66 1017.80 1017.93 1018.04 1018.13 1018.19 1018.19
1007.20 1006.94 1006.67 1006.42 1006.23 1006.11 1006.09 1006.16 1006.33 1006.61 1006.96 1007.37 1007.80 1008.20 1008.56 1008.84 1009.04 1009.17 1009.26 1009.36 1009.51 1009.74 1010.07 1010.51 1011.03 1011.60 1012.18 1012.73 1013.23 1013.67 1014.05 1014.39 1014.72 1015.05 1015.40 1015.76 1016.13 1016.49 1016.83 1017.12 1017.37 1017.58 1017.75 1017.90 1018.03 1018.14 1018.24 1018.31 1018.35
1007.28 1007.05 1006.84 1006.65 1006.49 1006.36 1006.29 1006.27 1006.33 1006.49 1006.75 1007.10 1007.52 1007.99 1008.44 1008.84 1009.17 1009.41 1009.57 1009.70 1009.83 1010.02 1010.30 1010.69 1011.18 1011.74 1012.34 1012.92 1013.45 1013.90 1014.27 1014.59 1014.86 1015.12 1015.40 1015.71 1016.05 1016.41 1016.76 1017.10 1017.39 1017.63 1017.83 1017.99 1018.13 1018.25 1018.35 1018.44 1018.50
1007.24 1007.07 1006.93 1006.81 1006.70 1006.58 1006.46 1006.34 1006.28 1006.29 1006.43 1006.71 1007.12 1007.62 1008.17 1008.71 1009.19 1009.56 1009.82 1010.01 1010.16 1010.34 1010.58 1010.94 1011.41 1011.97 1012.58 1013.19 1013.75 1014.21 1014.58 1014.85 1015.06 1015.25 1015.45 1015.69 1015.99 1016.32 1016.69 1017.05 1017.38 1017.67 1017.90 1018.08 1018.22 1018.34 1018.45 1018.55 1018.64
1007.09 1006.99 1006.96 1006.95 1006.91 1006.82 1006.66 1006.46 1006.25 1006.12 1006.12 1006.30 1006.67 1007.20 1007.84 1008.51 1009.12 1009.63 1010.01 1010.27 1010.46 1010.64 1010.87 1011.19 1011.64 1012.20 1012.83 1013.46 1014.05 1014.53 1014.90 1015.14 1015.30 1015.42 1015.54 1015.71 1015.95 1016.26 1016.62 1017.00 1017.36 1017.68 1017.94 1018.15 1018.30 1018.42 1018.54 1018.65 1018.75
1006.83 1006.86 1006.98 1007.11 1007.20 1007.16 1006.99 1006.71 1006.38 1006.09 1005.94 1006.00 1006.31 1006.83 1007.52 1008.29 1009.03 1009.67 1010.16 1010.50 1010.72 1010.90 1011.10 1011.40 1011.82 1012.37 1013.00 1013.65 1014.27 1014.78 1015.16 1015.40 1015.52 1015.58 1015.65 1015.76 1015.94 1016.22 1016.57 1016.95 1017.34 1017.68 1017.97 1018.19 1018.36 1018.49 1018.61 1018.73 1018.85
1006.52 1006.72 1007.04 1007.37 1007.61 1007.67 1007.52 1007.18 1006.73 1006.29 1005.98 1005.91 1006.11 1006.60 1007.31 1008.14 1008.98 1009.72 1010.29 1010.69 1010.94 1011.11 1011.28 1011.52 1011.90 1012.42 1013.04 1013.70 1014.34 1014.89 1015.30 1015.55 1015.68 1015.72 1015.75 1015.81 1015.96 1016.20 1016.53 1016.92 1017.31 1017.67 1017.98 1018.21 1018.39 1018.53 1018.65 1018.78 1018.93
1006.19 1006.62 1007.19 1007.75 1008.18 1008.36 1008.25 1007.88 1007.33 1006.75 1006.28 1006.05 1006.14 1006.56 1007.24 1008.10 1008.99 1009.81 1010.45 1010.88 1011.14 1011.29 1011.41 1011.59 1011.90 1012.36 1012.95 1013.61 1014.27 1014.85 1015.30 1015.59 1015.74 1015.80 1015.82 1015.87 1015.99 1016.20 1016.51 1016.88 1017.27 1017.64 1017.95 1018.20 1018.39 1018.53 1018.67 1018.81 1018.98
1005.90 1006.58 1007.42 1008.23 1008.86 1009.18 1009.14 1008.75 1008.12 1007.41 1006.78 1006.40 1006.36 1006.68 1007.32 1008.17 1009.09 1009.95 1010.63 1011.09 1011.35 1011.47 1011.53 1011.64 1011.87 1012.25 1012.79 1013.42 1014.08 1014.68 1015.18 1015.52 1015.72 1015.81 1015.85 1015.90 1016.01 1016.21 1016.49 1016.84 1017.22 1017.58 1017.90 1018.15 1018.34 1018.50 1018.64 1018.80 1018.98
1005.68 1006.62 1007.71 1008.76 1009.58 1010.03 1010.05 1009.66 1008.96 1008.13 1007.37 1006.85 1006.68 1006.90 1007.48 1008.30 1009.23 1010.11 1010.83 1011.32 1011.58 1011.68 1011.69 1011.72 1011.86 1012.16 1012.63 1013.21 1013.85 1014.47 1014.99 1015.39 1015.63 1015.77 1015.85 1015.91 1016.02 1016.20 1016.47 1016.80 1017.15 1017.50 1017.81 1018.06 1018.26 1018.42 1018.57 1018.73 1018.93
1005.54 1006.70 1008.00 1009.24 1010.20 1010.76 1010.83 1010.43 1009.69 1008.78 1007.91 1007.27 1006.98 1007.11 1007.62 1008.41 1009.34 1010.24 1010.99 1011.52 1011.81 1011.90 1011.89 1011.87 1011.94 1012.16 1012.54 1013.06 1013.66 1014.27 1014.81 1015.23 1015.53 1015.71 1015.82 1015.91 1016.02 1016.19 1016.44 1016.74 1017.07 1017.41 1017.70 1017.95 1018.15 1018.31 1018.46 1018.63 1018.83
1005.48 1006.78 1008.22 1009.56 1010.61 1011.22 1011.32 1010.93 1010.15 1009.19 1008.24 1007.51 1007.14 1007.19 1007.64 1008.40 1009.33 1010.26 1011.06 1011.64 1011.99 1012.12 1012.11 1012.08 1012.10 1012.26 1012.57 1013.02 1013.57 1014.14 1014.67 1015.10 1015.43 1015.64 1015.78 1015.89 1016.01 1016.18 1016.40 1016.68 1017.00 1017.31 1017.59 1017.83 1018.03 1018.19 1018.34 1018.49 1018.69
1005.48 1006.83 1008.29 1009.65 1010.71 1011.32 1011.42 1011.03 1010.25 1009.26 1008.28 1007.50 1007.08 1007.07 1007.48 1008.21 1009.13 1010.09 1010.95 1011.60 1012.03 1012.23 1012.29 1012.28 1012.30 1012.43 1012.69 1013.07 1013.56 1014.08 1014.58 1015.00 1015.33 1015.57 1015.73 1015.86 1015.99 1016.15 1016.37 1016.64 1016.93 1017.23 1017.51 1017.74 1017.93 1018.09 1018.22 1018.36 1018.52
1005.51 1006.80 1008.18 1009.46 1010.46 1011.02 1011.10 1010.70 1009.94 1008.97 1008.00 1007.23 1006.78 1006.74 1007.10 1007.80 1008.71 1009.68 1010.59 1011.33 1011.85 1012.17 1012.32 1012.39 1012.45 1012.58 1012.81 1013.15 1013.58 1014.04 1014.50 1014.90 1015.22 1015.46 1015.64 1015.79 1015.94 1016.12 1016.34 1016.60 1016.89 1017.18 1017.45 1017.68 1017.87 1018.01 1018.13 1018.24 1018.36
1005.54 1006.67 1007.88 1009.00 1009.86 1010.34 1010.38 1010.00 1009.28 1008.38 1007.47 1006.73 1006.29 1006.23 1006.55 1007.20 1008.07 1009.04 1009.97 1010.77 1011.39 1011.82 1012.09 1012.27 1012.40 1012.58 1012.81 1013.13 1013.52 1013.93 1014.35 1014.72 1015.03 1015.28 1015.48 1015.66 1015.84 1016.04 1016.28 1016.55 1016.85 1017.14 1017.42 1017.65 1017.83 1017.96 1018.05 1018.13 1018.20
1005.54 1006.44 1007.42 1008.31 1009.00 1009.38 1009.39 1009.05 1008.42 1007.62 1006.82 1006.15 1005.75 1005.67 1005.94 1006.51 1007.30 1008.22 1009.13 1009.96 1010.64 1011.17 1011.56 1011.85 1012.08 1012.32 1012.59 1012.91 1013.28 1013.66 1014.05 1014.40 1014.71 1014.98 1015.21 1015.43 1015.65 1015.89 1016.16 1016.47 1016.78 1017.08 1017.36 1017.59 1017.77 1017.88 1017.95 1017.99 1018.01
Thickness
5834 5836 5835 5829 5812 5797 5792 5826 5844 5839 5839 5848 5849 5842 5827 5815 5802 5788 5825 5838 5831 5820 5810 5803 5798 5795 5791 5788 5785 5782 5779 5776 5774 5772 5770 5768 5767 5766 5765 5763 5762 5760 5759 5758 5757 5755 5754 5753 5753
5839 5841 5835 5824 5804 5786 5799 5830 5835 5837 5843 5849 5846 5839 5827 5819 5826 5822 5828 5832 5827 5817 5808 5802 5796 5793 5789 5786 5783 5780 5778 5775 5772 5770 5768 5767 5765 5764 5763 5761 5760 5759 5757 5756 5754 5753 5752 5751 5751
5838 5842 5827 5819 5806 5801 5812 5836 5839 5847 5851 5845 5837 5835 5825 5815 5822 5825 5830 5831 5824 5815 5806 5798 5794 5790 5787 5784 5781 5778 5775 5773 5770 5768 5767 5765 5763 5762 5761 5759 5758 5757 5755 5754 5752 5751 5750 5749 5749
5836 5835 5827 5815 5805 5828 5837 5843 5845 5842 5841 5842 5835 5820 5820 5827 5826 5829 5831 5828 5818 5810 5803 5795 5791 5788 5784 5781 5779 5776 5773 5771 5769 5766 5765 5763 5761 5760 5758 5757 5756 5754 5753 5751 5750 5749 5748 5747 5747
5837 5826 5811 5803 5814 5837 5849 5850 5847 5838 5833 5836 5830 5808 5804 5823 5833 5832 5828 5823 5815 5808 5799 5792 5788 5785 5781 5778 5776 5774 5771 5769 5766 5764 5763 5761 5759 5758 5756 5755 5753 5752 5751 5749 5748 5747 5746 5745 5745
5825 5823 5802 5803 5824 5843 5851 5853 5847 5834 5829 5832 5826 5809 5803 5823 5826 5825 5825 5820 5815 5807 5797 5789 5785 5782 5779 5776 5774 5771 5769 5767 5765 5762 5761 5759 5757 5755 5754 5753 5751 5750 5749 5747 5746 5745 5744 5744 5744
5818 5813 5807 5820 5829 5837 5844 5852 5842 5832 5827 5829 5831 5809 5804 5817 5823 5825 5822 5818 5813 5806 5796 5788 5783 5779 5776 5774 5771 5769 5767 5765 5763 5761 5759 5757 5756 5754 5752 5751 5749 5748 5747 5745 5745 5744 5743 5743 5743
5832 5817 5811 5828 5831 5832 5845 5847 5844 5834 5823 5835 5832 5805 5793 5807 5820 5821 5817 5813 5808 5803 5794 5788 5783 5778 5775 5772 5769 5767 5765 5763 5761 5759 5758 5756 5754 5753 5751 5749 5748 5747 5745 5744 5743 5742 5742 5742 5742
5837 5810 5806 5825 5831 5834 5845 5838 5840 5842 5830 5828 5826 5815 5804 5811 5816 5811 5806 5802 5799 5797 5793 5789 5784 5779 5776 5772 5768 5765 5763 5761 5760 5758 5757 5756 5754 5753 5751 5750 5747 5746 5744 5743 5742 5741 5741 5740 5741
5830 5806 5817 5836 5841 5839 5839 5834 5833 5829 5818 5811 5809 5807 5805 5807 5806 5801 5796 5793 5790 5788 5789 5789 5784 5780 5778 5775 5768 5765 5763 5761 5760 5759 5757 5756 5755 5754 5752 5749 5747 5745 5743 5742 5741 5740 5740 5740 5740
5831 5821 5831 5840 5845 5840 5832 5831 5833 5819 5801 5800 5795 5792 5796 5799 5797 5795 5793 5791 5789 5788 5788 5787 5783 5778 5777 5774 5769 5767 5765 5762 5761 5759 5758 5756 5755 5755 5752 5749 5746 5744 5743 5742 5741 5741 5741 5741 5741
5830 5832 5836 5837 5842 5836 5829 5827 5823 5816 5806 5808 5805 5799 5793 5792 5792 5790 5788 5788 5786 5784 5783 5784 5781 5777 5775 5772 5770 5767 5765 5762 5762 5760 5759 5757 5755 5754 5752 5750 5748 5746 5745 5744 5743 5742 5742 5741 5740
5829 5831 5838 5840 5838 5835 5829 5821 5816 5812 5814 5811 5805 5796 5788 5787 5787 5786 5786 5784 5781 5777 5775 5776 5777 5773 5771 5769 5768 5767 5765 5762 5761 5759 5757 5756 5755 5753 5751 5749 5748 5747 5745 5744 5743 5742 5741 5740 5739
5834 5833 5834 5834 5832 5830 5821 5817 5811 5802 5808 5803 5796 5787 5782 5778 5779 5778 5778 5775 5775 5771 5767 5770 5771 5770 5767 5765 5764 5764 5763 5761 5759 5757 5756 5755 5753 5751 5750 5748 5747 5746 5745 5744 5742 5741 5740 5739 5738
5837 5822 5820 5824 5826 5827 5820 5801 5799 5803 5802 5791 5787 5781 5776 5773 5772 5771 5772 5770 5769 5768 5766 5766 5766 5765 5763 5761 5761 5761 5761 5759 5757 5755 5754 5753 5752 5750 5749 5748 5746 5745 5744 5743 5742 5741 5739 5738 5738
5822 5808 5795 5811 5822 5825 5809 5783 5797 5801 5793 5782 5778 5774 5769 5767 5767 5768 5769 5766 5766 5765 5762 5762 5762 5760 5758 5757 5757 5758 5759 5758 5756 5753 5752 5751 5750 5749 5748 5747 5745 5744 5744 5742 5741 5739 5737 5736 5735
5803 5794 5792 5802 5821 5821 5808 5790 5796 5800 5789 5778 5774 5770 5765 5762 5762 5764 5765 5763 5761 5760 5759 5756 5758 5755 5754 5753 5753 5754 5755 5755 5753 5751 5750 5748 5748 5747 5747 5745 5743 5743 5743 5742 5741 5736 5735 5733 5733
5794 5803 5802 5803 5819 5818 5805 5797 5798 5799 5789 5780 5775 5768 5762 5758 5757 5758 5759 5758 5757 5756 5754 5753 5753 5751 5751 5750 5750 5751 5751 5751 5751 5749 5748 5747 5746 5746 5745 5744 5743 5743 5742 5740 5738 5735 5734 5733 5732
5817 5812 5806 5811 5827 5816 5804 5797 5797 5796 5788 5781 5774 5767 5760 5755 5756 5755 5754 5753 5753 5751 5750 5749 5748 5747 5747 5746 5745 5744 5744 5746 5747 5746 5746 5745 5745 5745 5745 5744 5742 5741 5740 5738 5737 5734 5732 5731 5733
5817 5808 5806 5813 5823 5815 5802 5795 5798 5793 5784 5782 5776 5767 5759 5753 5751 5749 5749 5749 5750 5748 5746 5746 5747 5746 5746 5745 5745 5745 5745 5745 5745 5745 5744 5744 5744 5744 5745 5742 5742 5740 5738 5737 5736 5733 5730 5731 5732
5813 5807 5807 5808 5818 5818 5801 5784 5785 5789 5789 5786 5781 5773 5763 5756 5750 5746 5746 5747 5747 5746 5745 5746 5745 5745 5745 5745 5744 5745 5743 5742 5742 5741 5742 5744 5744 5743 5743 5742 5742 5740 5739 5736 5734 5733 5730 5727 5729
5804 5819 5818 5812 5800 5790 5790 5761 5778 5784 5780 5780 5778 5774 5767 5761 5755 5749 5747 5746 5746 5747 5747 5746 5744 5744 5744 5744 5743 5741 5738 5737 5740 5742 5742 5743 5743 5743 5742 5742 5741 5739 5739 5736 5734 5732 5731 5728 5725
5815 5826 5818 5808 5790 5777 5779 5768 5776 5788 5777 5780 5781 5779 5772 5766 5760 5753 5749 5748 5749 5749 5748 5746 5745 5743 5744 5744 5744 5743 5741 5742 5744 5743 5741 5741 5742 5742 5742 5741 5740 5739 5737 5735 5733 5731 5729 5728 5725
5828 5820 5810 5795 5770 5739 5759 5764 5770 5785 5784 5786 5786 5783 5777 5771 5765 5757 5754 5752 5751 5751 5749 5747 5745 5744 5744 5745 5745 5743 5742 5743 5742 5740 5739 5739 5740 5741 5740 5740 5739 5738 5736 5734 5732 5729 5728 5726 5724
5820 5796 5769 5751 5732 5727 5762 5769 5781 5803 5807 5801 5793 5787 5782 5777 5769 5762 5757 5753 5752 5753 5751 5749 5746 5744 5744 5745 5744 5744 5743 5743 5741 5741 5739 5740 5740 5739 5739 5740 5737 5736 5734 5732 5730 5728 5726 5724 5722
5810 5799 5767 5743 5739 5746 5757 5760 5788 5813 5817 5814 5805 5796 5788 5781 5775 5768 5763 5760 5758 5757 5754 5751 5748 5746 5746 5745 5744 5745 5744 5743 5743 5742 5743 5742 5743 5743 5741 5739 5736 5735 5733 5732 5729 5727 5725 5723 5720
5804 5801 5807 5782 5771 5756 5750 5760 5785 5808 5808 5806 5803 5797 5790 5785 5780 5775 5770 5767 5764 5761 5758 5755 5751 5749 5748 5747 5745 5745 5744 5745 5745 5744 5744 5744 5743 5742 5740 5738 5735 5733 5731 5729 5727 5724 5723 5721 5718
5821 5814 5799 5781 5759 5747 5748 5748 5749 5773 5787 5799 5800 5797 5794 5790 5786 5782 5777 5773 5770 5767 5763 5760 5756 5752 5750 5749 5747 5746 5745 5745 5745 5744 5742 5743 5743 5742 5738 5736 5734 5731 5729 5726 5724 5722 5721 5718 5715
5801 5802 5797 5789 5784 5757 5738 5740 5769 5771 5788 5799 5804 5803 5799 5795 5791 5787 5783 5779 5775 5771 5767 5762 5758 5754 5752 5750 5748 5748 5745 5745 5744 5742 5742 5741 5740 5738 5736 5734 5731 5729 5726 5724 5721 5719 5718 5715 5712
5802 5797 5793 5773 5772 5776 5760 5753 5791 5791 5800 5806 5808 5808 5806 5802 5798 5793 5788 5783 5778 5773 5769 5765 5762 5757 5754 5753 5750 5748 5746 5745 5743 5741 5741 5740 5737 5735 5733 5731 5728 5726 5724 5722 5719 5716 5715 5712 5709